Home   Weather   London   Past weeks
Flag for United Kingdom

Past Weather in London, England, United Kingdom — Yesterday and Last 2 Weeks

Now
52 °F

Sunny.


Feels Like: 48 °F
Forecast: 62 / 51 °F
Wind: 10 mph from West

Location: Northolt

Current Time: May 27, 2019 at 8:34:26 am

Latest Report: May 27, 2019 at 7:50 am


Visibility: 10 mi

Pressure: 29.86 "Hg

Humidity: 88%

Dew Point: 48 °F

Location of LondonLocation

Past Weather in London — Graph

°F

London Temperature Yesterday

Maximum temperature yesterday: 68 °F (at 12:50 pm)
Minimum temperature yesterday: 52 °F (at 11:50 pm)
Average temperature yesterday: 62 °F

High & Low Weather Summary for the Past Weeks

 TemperatureHumidityPressure
High75 °F (May 23, 4:50 pm)100% (May 12, 6:50 am)30.72 "Hg (May 12, 6:50 am)
Low37 °F (May 13, 3:50 am)29% (May 13, 6:50 pm)29.68 "Hg (May 18, 4:50 am)
Average57 °F65%30.09 "Hg
* Reported May 12 6:50 am — May 27 6:50 am, London. Weather by CustomWeather, © 2019

Note: Actual official high and low records may vary slightly from our data, if they occured in-between our weather recording intervals... More about our weather records

Advertising

London Weather History for the Previous 24 Hours

Scroll right to see more
 ConditionsComfort  
Time TempWeatherWind HumidityBarometerVisibility
6:50 am
Mon, May 27
50 °FSunny.10 mph88%29.86 "Hg10 mi
5:50 am48 °FScattered clouds.5 mph87%29.86 "HgN/A
4:50 am48 °FClear.3 mph87%29.86 "HgN/A
3:50 am46 °FClear.5 mph93%29.86 "HgN/A
2:50 am48 °FClear.2 mph94%29.86 "HgN/A
1:50 am48 °FClear.5 mph94%29.89 "HgN/A
12:50 am50 °FClear.6 mph94%29.89 "HgN/A
11:50 pm
Sun, May 26
52 °FClear.2 mph88%29.89 "HgN/A
10:50 pm55 °FClear.2 mph82%29.89 "HgN/A
9:50 pm59 °FPassing clouds.8 mph82%29.86 "HgN/A
8:50 pm61 °FBroken clouds.13 mph83%29.86 "HgN/A
7:50 pm64 °FScattered showers. Scattered clouds.12 mph73%29.83 "HgN/A
6:50 pm64 °FSprinkles. Broken clouds.14 mph73%29.83 "HgN/A
5:50 pm66 °FPartly sunny.14 mph68%29.83 "HgN/A
4:50 pm66 °FPartly sunny.16 mph68%29.86 "HgN/A
3:50 pm66 °FPartly sunny.10 mph78%29.86 "HgN/A
2:50 pm64 °FPartly sunny.15 mph78%29.89 "HgN/A
1:50 pm66 °FBroken clouds.16 mph73%29.89 "HgN/A
12:50 pm68 °FPartly sunny.17 mph69%29.89 "HgN/A
11:50 am64 °FPartly sunny.15 mph73%29.92 "HgN/A
10:50 am64 °FPartly sunny.18 mph73%29.95 "HgN/A
9:50 am63 °FPartly sunny.16 mph77%29.95 "HgN/A
8:50 am63 °FBroken clouds.12 mph77%29.95 "HgN/A
Weather by CustomWeather, © 2019

See weather overview